This is the latest recevied weather packets stored in our database for station/object N3DXC. If no packets are shown the sender has not sent any weather packets the latest 10 day(s).
| Time | Temp. | Humidity | Pressure | Rain* | Wind** | Luminosity | Snow |
|---|---|---|---|---|---|---|---|
| 1777486809 | 13.89° C | 93% | 1007.6 hPa | 0.51 mm | - | - | - |
| 1777486507 | 13.89° C | 94% | 1007.7 hPa | 0.76 mm | - | - | - |
| 1777486207 | 13.89° C | 94% | 1007.7 hPa | 1.02 mm | - | - | - |
| 1777485907 | 13.89° C | 94% | 1007.9 hPa | 1.52 mm | - | - | - |
| 1777485607 | 13.89° C | 94% | 1008.1 hPa | 2.03 mm | - | - | - |
| 1777485308 | 13.89° C | 95% | 1008.3 hPa | 2.03 mm | - | - | - |
| 1777485007 | 13.89° C | 95% | 1008.4 hPa | 2.03 mm | - | - | - |
| 1777484710 | 13.89° C | 95% | 1008.4 hPa | 2.29 mm | - | - | - |
| 1777484407 | 13.89° C | 95% | 1008.5 hPa | 2.29 mm | - | - | - |
| 1777484108 | 13.89° C | 95% | 1008.6 hPa | 2.54 mm | - | - | - |
| 1777483807 | 13.89° C | 95% | 1008.7 hPa | 2.54 mm | - | - | - |
| 1777483507 | 13.33° C | 95% | 1008.7 hPa | 2.29 mm | - | - | - |
| 1777483207 | 13.33° C | 94% | 1008.7 hPa | 2.03 mm | - | - | - |
| 1777482907 | 13.89° C | 94% | 1009 hPa | 1.78 mm | - | - | - |
| 1777482607 | 13.89° C | 93% | 1009 hPa | 1.52 mm | - | - | - |
| 1777482307 | 13.89° C | 93% | 1009.3 hPa | 1.02 mm | - | - | - |
| 1777481707 | 13.89° C | 93% | 1009.3 hPa | 0.51 mm | - | - | - |
| 1777481409 | 13.89° C | 92% | 1009.2 hPa | 0.51 mm | - | - | - |
| 1777481107 | 13.89° C | 91% | 1009.2 hPa | 0.25 mm | - | - | - |
| 1777480807 | 13.89° C | 92% | 1009.3 hPa | 0.25 mm | - | - | - |
| 1777480507 | 13.89° C | 92% | 1009.5 hPa | 0 mm | - | - | - |
| 1777480207 | 13.89° C | 92% | 1009.6 hPa | 0 mm | - | - | - |
| 1777479908 | 13.89° C | 91% | 1009.8 hPa | 0.25 mm | - | - | - |
| 1777479608 | 13.89° C | 92% | 1009.9 hPa | 0.25 mm | - | - | - |
| 1777479307 | 13.33° C | 93% | 1009.9 hPa | 0.25 mm | - | - | - |
* Rain latest hour (hover to see other rain measurements)
** Current wind speed in m/s (hover to see current wind gust speed)